TimeCST,TemperatureF,Dew PointF,Humidity,Sea Level PressureIn,VisibilityMPH,Wind Direction,Wind SpeedMPH,Gust SpeedMPH,PrecipitationIn,Events,Conditions,WindDirDegrees,DateUTC
12:00 AM,67,65,89,29.81,12,ENE,3.5,,,,Clear,70,2013-08-24 06:00:00
12:00 AM,68.0,64.4,88,30.03,-9999.0,ENE,3.5,-,N/A,,Clear,70,2013-08-24 06:00:00
1:00 AM,68.0,64.4,88,29.99,-9999.0,East,5.8,-,N/A,,Clear,80,2013-08-24 07:00:00
2:00 AM,68.0,62.6,83,29.97,-9999.0,East,5.8,-,N/A,,Clear,90,2013-08-24 08:00:00
3:00 AM,67,62,80,29.80,12,East,5.8,,,,Clear,80,2013-08-24 09:00:00
3:00 AM,68.0,62.6,83,29.94,-9999.0,East,5.8,-,N/A,,Clear,80,2013-08-24 09:00:00
4:00 AM,66.2,62.6,88,29.96,-9999.0,WSW,4.6,-,N/A,,Clear,240,2013-08-24 10:00:00
5:00 AM,66.2,64.4,94,29.97,6.2,West,5.8,-,N/A,,Mostly Cloudy,260,2013-08-24 11:00:00
6:00 AM,66.2,64.4,94,29.97,6.2,West,5.8,-,N/A,,Mostly Cloudy,260,2013-08-24 12:00:00
7:00 AM,69.8,64.4,83,30.01,6.2,ENE,3.5,-,N/A,,Mostly Cloudy,60,2013-08-24 13:00:00
8:00 AM,77.0,62.6,61,30.04,6.2,NNE,4.6,-,N/A,,Mostly Cloudy,30,2013-08-24 14:00:00
9:00 AM,76,67,68,29.85,12,WSW,6.9,,,,Scattered Clouds,240,2013-08-24 15:00:00
9:00 AM,77.0,68.0,74,30.04,6.2,WSW,6.9,-,N/A,,Mostly Cloudy,240,2013-08-24 15:00:00
11:00 AM,77.0,68.0,74,30.04,6.2,WSW,8.1,-,N/A,,Mostly Cloudy,250,2013-08-24 17:00:00
12:00 PM,78,68,65,29.81,12,SW,8.1,,,,Partly Cloudy,220,2013-08-24 18:00:00
12:00 PM,78.8,68.0,69,30.02,-9999.0,North,-9999.0,-,N/A,,Scattered Clouds,0,2013-08-24 18:00:00
1:00 PM,77.0,68.0,74,30.00,6.2,SW,9.2,-,N/A,,Scattered Clouds,230,2013-08-24 19:00:00
2:00 PM,75.2,68.0,78,29.98,6.2,West,13.8,-,N/A,Rain-Thunderstorm,Rain Showers,260,2013-08-24 20:00:00
2:35 PM,71.6,69.8,94,-9999,1.2,WSW,16.1,-,N/A,Rain-Thunderstorm,Light Thunderstorms and Rain,250,2013-08-24 20:35:00
2:45 PM,69.8,66.2,88,30.00,0.3,South,13.8,-,N/A,Rain-Thunderstorm,Heavy Thunderstorms and Rain,180,2013-08-24 20:45:00
3:00 PM,66,65,97,29.86,0,NE,15.0,,,Rain-Thunderstorm,Thunderstorms and Rain,40,2013-08-24 21:00:00
3:00 PM,66.2,66.2,100,29.98,0.3,NE,15.0,-,N/A,Rain-Thunderstorm,Thunderstorms and Rain,40,2013-08-24 21:00:00
3:15 PM,66.2,66.2,100,29.98,0.9,West,8.1,-,N/A,Rain-Thunderstorm,Thunderstorms and Rain,270,2013-08-24 21:15:00
4:00 PM,66.2,66.2,100,29.99,1.6,East,6.9,-,N/A,Rain,Light Rain,90,2013-08-24 22:00:00
5:00 PM,68.0,33.8,28,30.00,5.0,NNW,3.5,-,N/A,Fog,Mostly Cloudy,340,2013-08-24 23:00:00
6:00 PM,67,67,98,29.89,5,SW,1.2,,,Rain,Light Rain,220,2013-08-25 00:00:00
6:00 PM,68.0,66.2,94,30.00,5.0,SW,1.2,-,N/A,Fog-Rain,Light Rain,220,2013-08-25 00:00:00
7:00 PM,68.0,33.8,28,30.02,5.0,South,3.5,-,N/A,Fog,Mostly Cloudy,170,2013-08-25 01:00:00
8:00 PM,66.2,66.2,100,30.05,3.1,NW,6.9,-,N/A,,Mostly Cloudy,310,2013-08-25 02:00:00
9:00 PM,68,66,91,29.91,9,NE,2.3,,,,Partly Cloudy,40,2013-08-25 03:00:00
9:00 PM,68.0,66.2,94,30.06,6.2,NE,2.3,-,N/A,,Mostly Cloudy,40,2013-08-25 03:00:00
10:00 PM,68.0,66.2,94,30.06,6.2,ESE,3.5,-,N/A,,Mostly Cloudy,120,2013-08-25 04:00:00
11:00 PM,68.0,66.2,94,30.05,-9999.0,ENE,3.5,-,N/A,,Clear,70,2013-08-25 05:00:00